Flag for Brazil Past Weather in São José do Rio Preto, São Paulo, Brazil — Yesterday and Last 2 Weeks

Now
77 °F

Sunny.


Feels Like: 78 °F
Forecast: 64 / 89 °F
Wind: 6 mph from Southeast

Location: Leite Lopes / Ribeir

Current Time: Aug 27, 2016 at 10:37:17 AM

Latest Report: Aug 27, 2016 at 10:00 AM


Visibility: 10 mi

Pressure: 30.09 "Hg (28.40 "Hg at 503m altitude)

Humidity: 39%

Dew Point: 50 °F

Location of São José do Rio PretoLocation

Past Weather in São José do Rio Preto — Graph

°F

São José do Rio Preto Temperature Yesterday

Maximum temperature yesterday: 86 °F (at 1:00 PM)
Minimum temperature yesterday: 55 °F (at 6:00 AM)
Average temperature yesterday: 71 °F

High & Low Weather Summary for the Past Weeks

 TemperatureHumidityPressure
High95 °F (Aug 19, 2:00 PM)100% (Aug 17, 1:00 AM)30.24 "Hg (Aug 17, 1:00 AM)
Low48 °F (Aug 13, 5:00 AM)14% (Aug 14, 2:00 PM)29.83 "Hg (Aug 15, 3:00 PM)
Average70 °F61%30.04 "Hg
* Reported Aug 12 9:00 AM — Aug 27 9:00 AM, São José do Rio Preto, Weather by CustomWeather, © 2016

Note: Actual official high and low records may vary slightly from our data, if they occured in-between our weather recording intervals... More about our weather records

Advertising

São José do Rio Preto Weather History for the Previous 24 Hours

Scroll right to see more
 ConditionsComfort  
Time TempWeatherWind HumidityBarometerVisibility
9:00 AM
Sat, Aug 27
70 °FSunny.9 mph50%30.09 "Hg10 mi
8:00 AM57 °FSunny.5 mph77%30.09 "Hg10 mi
7:00 AM57 °FSunny.5 mph77%30.09 "Hg10 mi
6:00 AM55 °FSunny.7 mph82%30.07 "Hg10 mi
5:00 AM57 °FClear.6 mph77%30.04 "Hg10 mi
4:00 AM59 °FClear.6 mph72%30.04 "Hg10 mi
3:00 AM59 °FClear.3 mph72%30.04 "Hg10 mi
2:00 AM61 °FClear.3 mph68%30.04 "Hg10 mi
1:00 AM63 °FClear.6 mph64%30.04 "Hg10 mi
12:00 AM66 °FClear.No wind56%30.07 "Hg10 mi
11:00 PM
Fri, Aug 26
68 °FClear.6 mph49%30.07 "Hg10 mi
10:00 PM70 °FClear.5 mph46%30.07 "Hg10 mi
9:00 PM72 °FClear.5 mph44%30.07 "Hg10 mi
7:00 PM77 °FClear.No wind34%30.01 "Hg10 mi
6:00 PM82 °FPassing clouds.5 mph23%30.01 "HgN/A
5:00 PM86 °FPassing clouds.7 mph19%29.98 "HgN/A
4:00 PM86 °FPassing clouds.7 mph19%29.98 "HgN/A
3:00 PM86 °FSunny.5 mph20%30.01 "Hg10 mi
2:00 PM86 °FSunny.8 mph24%30.04 "Hg10 mi
1:00 PM86 °FPassing clouds.10 mph17%30.07 "HgN/A
12:00 PM82 °FPassing clouds.5 mph28%30.09 "HgN/A
11:00 AM81 °FSunny.3 mph37%30.12 "Hg10 mi
10:00 AM73 °FSunny.6 mph47%30.12 "Hg10 mi
Weather by CustomWeather, © 2016

See weather overviewHow to use our weather pages